Tracking 17145 objects as of 23-May-2015
HD Live streaming from Space Station

INTELSAT 705

Track INTELSAT 705 now!
INTELSAT 705 is classified as:


NORAD ID: 23528
Int'l Code: 1995-013A
Perigee: 36,077.5 km
Apogee: 36,243.9 km
Inclination: 4.5 °
Period: 1,454.9 minutes
Semi major axis: 42531 km
RCS: 12.1482 m2 (large)
Launch date: March 22, 1995
Source: International Telecommunications Satellite Organization (ITSO)

42 C-band, 24 Ku-band; broadcasting, business services, direct-to-home TV broadcasting, telecommunications, VSATnetworks; Atlantic Ocean region.
Your satellite tracking list
Your tracking list is empty





NASA's NSSDC Master Catalog

Two Line Element Set (TLE):
1 23528U 95013A   15141.38277921 -.00000272  00000-0  00000+0 0  9990
2 23528 004.5412 062.7347 0019569 010.7791 104.5922 00.98976890 73573

Source of the keplerian elements: AFSPC

N2YO: 343